Theta_e
316 316 318 318 318 318 317 317 318 318 319 320 321 322 323 324 322 318 311 318 323 334 326 319 318 318 319 316 317 317 307 304 307 309 312 318 319 326 329 320 321 321 328 339 344
315 316 317 317 317 317 317 316 317 318 318 319 320 322 323 323 315 311 323 338 336 336 317 313 313 315 312 312 314 311 307 307 312 314 313 317 319 321 319 317 317 324 331 337 341
315 316 316 316 316 316 317 316 317 317 318 319 320 321 322 321 311 313 335 338 338 331 319 317 316 314 309 312 311 311 307 311 313 315 315 315 318 322 319 315 316 321 330 332 335
314 315 315 316 315 316 316 316 317 318 318 319 320 320 321 317 304 319 340 338 338 320 316 315 313 310 308 307 311 307 311 312 313 314 314 313 317 317 319 319 321 323 331 331 332
314 314 315 315 316 316 316 317 317 317 317 318 319 320 317 308 308 324 339 333 318 315 312 311 310 310 307 309 309 308 309 312 314 314 314 315 314 315 317 320 322 326 330 328 331
314 314 314 314 315 315 316 316 317 317 317 318 319 319 312 304 321 323 319 318 315 312 312 313 311 313 309 309 308 310 310 310 312 313 313 311 312 314 318 321 320 325 325 326 328
313 313 313 314 314 315 316 316 316 317 317 319 320 318 311 309 319 321 318 314 314 314 312 315 315 312 311 307 312 310 307 309 310 311 310 312 308 310 317 318 317 321 322 323 325
312 312 312 313 314 314 315 316 316 318 319 320 321 317 308 320 321 317 318 316 317 318 316 317 316 312 310 311 308 306 306 301 308 310 310 310 303 312 316 315 315 319 321 321 322
312 311 311 312 313 314 314 314 317 322 321 321 316 313 308 318 312 316 318 313 315 315 316 316 313 309 309 304 302 304 298 300 303 310 309 308 304 311 316 315 314 317 320 319 319
312 311 311 311 313 313 312 313 321 316 317 317 316 311 314 310 313 313 317 315 312 311 310 309 307 303 304 302 294 299 299 300 301 306 308 305 305 309 314 314 314 315 317 317 317
311 310 310 311 312 311 312 319 313 312 316 312 313 311 311 315 315 311 314 312 311 308 302 306 301 297 301 303 304 302 301 301 304 306 306 306 306 307 310 313 313 313 316 316 317
311 310 311 311 311 311 314 310 310 311 304 312 311 312 314 315 308 311 315 308 307 302 305 303 299 304 305 305 303 302 300 300 305 308 306 307 305 309 310 311 314 314 314 316 317
309 309 310 310 310 314 316 313 316 316 306 308 312 311 311 313 308 308 311 309 305 303 303 301 303 308 305 304 302 301 299 300 300 305 307 305 303 306 309 312 313 314 315 316 317
309 309 309 309 311 315 312 315 316 319 301 304 307 310 312 312 307 314 314 308 306 302 304 303 306 305 304 302 303 299 304 303 301 300 296 306 294 303 307 308 311 313 313 314 315
308 309 309 308 312 312 311 315 316 316 292 305 307 316 312 308 310 310 315 310 302 303 304 301 303 303 302 303 305 300 305 303 301 299 299 299 297 301 307 305 308 312 314 315 316
308 308 309 312 314 312 313 314 314 300 291 302 307 305 305 307 307 309 309 312 310 303 304 304 308 307 305 306 306 306 303 303 303 300 293 299 298 298 302 306 309 312 313 315 315
307 307 307 311 307 312 313 311 299 294 304 300 301 304 303 302 304 306 305 303 300 296 296 301 302 306 307 303 306 304 300 294 291 292 292 301 297 301 307 310 311 313 314 315 317
305 306 314 312 313 313 311 302 293 300 301 305 303 302 299 302 302 303 303 300 305 302 298 295 293 301 306 303 301 301 300 294 287 290 292 301 295 301 310 312 313 314 316 316 316
305 316 313 313 313 313 305 295 297 300 301 299 300 298 298 301 301 301 301 301 304 305 299 297 296 305 306 306 305 300 297 302 297 298 294 298 302 307 310 310 311 312 314 315 316
307 311 310 313 314 311 301 295 299 301 300 299 294 297 294 297 298 299 299 303 302 307 309 303 297 304 305 307 307 303 304 297 299 290 288 294 298 299 305 307 310 310 312 314 317
310 305 309 312 313 307 298 298 298 300 299 295 294 293 294 294 296 296 297 302 302 302 306 305 301 300 305 301 300 301 298 299 301 297 292 291 295 309 310 309 311 312 313 315 315
307 299 309 311 301 302 297 297 297 297 299 296 296 295 294 294 293 294 295 299 301 302 298 302 299 296 299 304 306 305 301 300 293 293 298 297 296 309 311 310 313 312 314 315 315
302 302 308 307 293 293 296 295 297 295 294 293 292 294 295 292 289 294 295 300 301 299 297 298 296 292 294 299 303 301 301 303 303 302 296 292 295 313 310 311 314 314 314 314 316
302 295 300 302 300 294 292 292 291 296 294 294 293 294 292 291 293 290 292 296 298 298 297 298 294 292 289 294 297 292 295 296 296 294 296 295 297 303 307 311 311 313 316 315 316
301 295 297 290 293 294 294 292 290 289 293 293 290 290 289 286 287 287 290 291 294 295 295 294 287 290 292 294 294 293 293 295 294 296 295 298 299 304 307 309 308 311 313 313 314
295 294 296 294 295 294 293 291 289 290 290 288 288 289 289 286 287 284 288 289 288 292 291 293 285 288 286 290 291 289 292 294 294 296 296 299 300 308 310 306 307 310 312 311 311
302 302 297 294 294 291 291 290 290 292 292 293 291 289 288 289 291 291 292 292 291 289 287 287 285 284 280 287 287 284 290 291 294 296 296 292 299 306 304 305 307 307 310 311 312
Wind_Speed
21 21 20 20 19 18 19 18 17 16 15 14 13 11 10 10 13 10 15 11 18 10 3 11 15 16 16 16 18 18 15 16 21 21 20 10 11 13 10 16 10 5 20 21 20
21 21 21 21 20 19 19 19 17 17 15 14 12 12 10 7 14 22 22 9 11 12 11 15 16 16 14 16 17 18 16 22 21 20 18 15 11 12 14 15 14 13 22 20 18
23 22 21 22 22 20 19 19 17 16 15 13 12 11 10 9 15 18 19 16 14 11 15 17 16 17 19 17 19 21 20 21 21 22 19 12 13 13 16 14 16 16 18 20 18
25 25 24 23 24 22 20 19 18 15 13 14 11 9 8 11 6 6 12 11 12 12 15 17 16 19 21 21 21 23 25 21 24 25 12 17 14 15 12 11 19 17 18 18 18
25 26 25 24 23 22 21 18 17 15 13 12 11 8 5 10 22 12 10 12 12 12 18 18 17 17 21 20 19 24 22 20 23 20 8 16 20 15 17 17 22 23 20 17 16
26 26 26 25 24 23 21 19 16 13 13 10 8 4 7 16 7 18 16 14 15 16 19 19 18 18 19 20 20 20 19 20 19 22 8 18 18 18 12 11 14 22 20 17 16
27 27 27 27 25 24 21 20 16 12 12 10 7 8 13 19 1 17 13 14 16 18 19 19 20 17 16 20 20 19 21 18 17 23 15 17 21 23 13 16 15 18 16 15 14
27 28 28 28 27 24 22 19 16 11 11 9 7 9 10 8 18 14 12 15 17 15 16 10 16 12 15 14 18 16 17 19 16 21 12 18 18 21 16 15 15 19 17 15 14
27 28 28 28 29 25 22 18 14 8 7 8 7 10 14 1 12 11 14 16 13 11 9 8 7 14 16 17 13 15 16 21 20 18 18 20 15 20 18 14 12 14 16 15 13
28 29 29 28 29 26 24 14 3 1 7 11 13 10 18 15 13 14 13 15 12 13 13 11 10 15 16 13 17 16 20 19 18 19 20 21 18 17 15 21 19 17 17 16 16
29 30 30 29 26 24 15 5 5 7 13 16 8 12 8 6 2 13 16 15 16 14 16 17 14 18 21 21 20 18 22 21 17 25 19 22 18 19 19 17 23 18 16 18 17
31 31 32 29 25 26 9 11 10 10 14 19 24 25 22 10 9 13 14 18 17 18 18 17 19 20 20 20 22 21 23 23 21 18 21 20 20 18 17 19 16 19 18 15 18
31 32 31 31 28 11 6 11 12 11 10 16 21 16 17 14 18 15 18 19 19 20 19 20 20 23 20 19 22 23 22 21 23 18 18 17 15 11 14 19 19 17 14 16 17
32 32 32 31 7 12 8 14 14 10 8 11 8 8 6 7 15 17 18 19 20 23 21 21 20 24 12 15 19 17 15 18 19 17 17 16 13 16 19 21 20 18 19 20 20
33 32 31 16 10 9 14 14 11 7 8 7 12 6 6 11 4 11 18 17 20 21 19 21 21 21 19 19 18 17 17 19 21 20 19 22 16 14 17 24 24 20 18 16 13
34 32 26 3 8 13 16 16 8 7 10 7 2 4 10 17 13 6 6 16 14 22 23 23 21 19 18 14 17 17 18 19 15 14 15 20 20 16 15 17 16 20 20 18 16
35 32 20 10 10 14 13 9 8 9 1 1 4 5 10 15 10 13 11 15 14 15 18 21 25 22 17 14 17 21 12 9 12 14 13 19 20 16 16 13 5 15 19 20 18
37 33 9 7 13 13 9 8 10 14 16 21 10 14 15 17 19 17 14 16 20 20 18 17 19 24 19 21 20 15 15 12 14 13 17 21 20 18 21 23 5 7 7 9 7
34 7 5 8 15 10 8 7 10 11 16 15 18 16 17 16 18 19 19 14 19 18 22 20 27 24 24 25 22 23 17 20 19 20 16 16 19 24 9 9 8 9 9 9 4
12 9 6 15 13 8 7 12 8 15 15 14 15 12 18 21 24 20 14 12 17 18 12 8 16 21 20 18 23 20 16 15 12 17 19 18 19 8 14 14 13 11 11 7 8
6 7 11 18 10 8 8 8 11 15 15 14 18 18 18 20 22 23 24 13 15 15 18 10 9 16 19 20 16 13 15 16 13 10 14 14 14 14 5 15 7 11 13 13 10
9 7 14 15 10 4 10 12 15 15 16 12 13 15 16 20 20 20 22 21 13 16 13 12 7 14 23 23 24 19 19 18 9 15 12 15 13 8 12 12 11 13 10 11 10
10 9 10 12 8 9 12 15 11 12 11 12 11 15 18 18 13 12 20 23 8 11 8 11 7 12 17 19 21 24 18 15 15 14 17 14 12 7 10 5 7 9 7 8 8
7 5 7 6 7 10 11 10 12 11 12 13 13 14 19 17 17 18 21 22 26 18 5 7 10 14 14 17 15 14 21 16 13 12 12 15 20 23 18 3 6 4 3 12 12
5 7 8 7 8 10 9 10 10 12 9 12 12 14 15 17 18 18 22 21 24 13 18 14 13 19 22 24 26 25 24 21 17 22 18 15 26 22 19 13 21 18 11 13 12
7 6 9 13 8 9 9 7 11 12 12 12 12 14 16 16 18 10 17 17 19 20 16 11 9 17 19 22 23 29 26 25 25 15 24 25 25 17 17 19 10 12 4 11 10
8 8 7 10 8 8 8 11 12 14 10 10 13 14 15 16 16 17 15 18 19 23 21 17 15 16 19 21 20 20 23 26 26 24 17 17 23 18 17 19 5 13 10 12 12
Wind_Direction
350 346 339 336 333 330 327 324 319 315 310 305 303 298 296 298 294 244 245 242 220 173 189 247 217 236 233 253 238 241 252 256 257 265 274 257 174 174 192 119 118 57 141 133 150
348 343 337 333 331 327 323 321 317 311 306 301 298 297 295 307 280 266 252 144 122 154 217 225 229 223 233 232 238 231 243 246 257 269 270 267 186 179 121 130 129 107 113 136 158
345 342 336 332 329 324 320 317 313 308 303 297 294 297 299 296 277 260 194 158 156 176 235 237 240 231 232 231 233 232 240 251 260 256 319 281 191 188 162 167 147 150 144 157 167
343 341 337 331 328 323 320 315 311 302 298 295 289 291 306 255 269 74 115 141 155 196 226 239 249 241 237 234 237 242 240 240 259 277 312 295 289 233 171 193 164 169 160 169 178
340 339 334 332 327 323 319 314 307 299 290 285 285 289 266 226 249 143 151 151 178 191 229 229 234 238 246 237 245 243 246 247 256 270 272 292 280 258 178 221 176 155 162 178 181
339 337 333 332 327 324 319 312 303 289 279 268 263 274 240 259 111 154 184 179 208 205 223 231 233 238 250 253 239 251 247 248 253 266 223 261 264 251 185 189 143 146 166 182 190
338 336 333 330 326 325 320 313 306 286 269 252 224 235 263 243 267 165 194 196 212 202 224 222 238 242 241 254 260 256 269 261 242 254 244 249 251 248 203 164 168 155 172 187 195
338 335 332 329 326 324 320 315 309 291 262 232 206 236 262 240 244 238 199 207 214 224 242 241 236 272 269 260 262 262 255 258 238 252 236 242 241 250 168 172 189 167 179 196 190
338 334 331 329 324 323 319 314 303 285 225 199 214 218 253 152 229 236 220 219 219 231 223 274 271 244 244 237 252 233 244 240 248 241 219 224 230 255 191 175 198 190 189 200 194
338 334 331 328 323 322 321 282 280 224 212 204 259 250 245 251 214 226 218 218 218 214 227 211 236 240 238 215 224 227 225 241 252 234 229 218 216 255 220 188 194 203 195 203 198
338 333 330 327 323 319 331 277 218 200 228 250 263 233 308 206 335 201 208 213 233 219 225 214 228 229 230 229 246 248 254 242 208 250 237 208 207 208 255 241 185 194 200 199 199
337 334 332 327 321 314 281 0 0 302 294 266 258 257 257 250 229 217 239 213 215 234 221 234 225 242 239 235 234 241 256 264 265 227 243 203 215 232 221 250 203 190 200 208 196
336 334 331 326 318 292 291 14 329 309 278 287 237 234 230 221 243 242 206 219 223 228 234 232 238 226 229 250 239 237 235 249 262 272 266 260 227 223 246 233 245 210 207 214 212
335 334 330 328 302 325 26 341 333 355 275 249 170 224 175 229 237 231 241 218 224 242 230 245 250 258 229 249 255 247 248 263 267 252 256 222 243 236 239 252 234 241 199 207 210
336 332 329 327 310 341 345 323 329 280 283 150 131 98 277 203 290 200 221 204 238 240 243 254 244 248 241 235 257 252 244 243 232 249 261 253 236 236 226 224 230 221 221 217 222
334 329 334 298 230 338 324 316 277 238 251 143 107 223 224 215 229 225 207 229 248 247 259 258 267 266 241 249 243 257 246 251 272 231 241 248 251 236 242 252 239 213 199 205 207
332 322 321 316 343 331 323 289 245 243 290 68 26 357 311 300 278 214 214 223 226 236 244 256 257 253 262 249 249 231 233 241 228 237 234 235 242 246 260 248 248 221 195 197 197
329 312 262 268 335 329 307 274 267 280 354 359 359 332 306 297 288 274 255 251 221 240 266 255 236 244 232 223 246 200 222 232 232 234 238 230 242 240 239 260 175 51 139 133 145
319 301 253 6 335 321 290 255 285 11 3 341 319 297 303 290 252 260 276 250 270 262 231 245 257 263 228 232 212 244 213 232 254 264 263 264 244 219 180 115 138 141 129 114 126
317 292 33 342 330 295 267 260 349 23 355 345 321 322 317 319 322 315 252 279 300 3 5 296 293 262 267 282 214 219 251 243 222 240 256 260 265 277 175 194 173 172 157 176 121
270 291 20 347 313 265 262 35 2 342 15 348 328 314 311 312 308 305 309 332 18 347 333 319 288 269 278 260 250 210 215 245 276 229 265 248 255 284 294 188 205 188 180 154 153
302 333 17 333 305 21 7 351 343 350 7 348 332 330 331 333 315 307 300 301 19 341 333 15 310 279 256 263 270 260 237 223 235 253 246 248 240 269 45 99 221 182 165 131 154
310 310 36 342 31 2 346 331 332 9 3 338 353 339 324 310 306 304 315 316 32 338 15 353 285 283 266 264 273 270 253 251 260 228 240 251 250 227 155 88 99 140 149 159 154
289 334 358 311 65 349 342 329 330 356 348 345 331 329 325 320 329 320 313 313 331 343 22 324 266 268 264 276 312 310 309 336 332 296 220 246 274 255 264 75 27 26 252 171 172
327 11 25 313 342 324 310 299 343 339 349 336 325 322 321 319 312 307 308 310 307 339 347 331 303 304 281 279 286 284 285 285 268 276 255 237 221 254 271 85 50 340 309 348 352
342 347 337 287 295 291 280 351 329 333 328 320 314 323 315 305 307 337 302 296 295 310 301 285 290 301 289 290 284 284 278 276 270 240 276 275 265 244 234 104 84 293 300 348 334
8 346 313 304 299 301 359 331 319 305 296 308 313 304 298 305 312 306 299 287 282 285 282 274 280 285 279 285 288 270 269 267 271 271 257 264 298 301 307 325 111 162 269 187 226